When you browse on this site, cookies collect data to enhance your experience and personalize the content and advertising you see.
Visit our Privacy Policy to learn more. By continuing to use the site, you agree to this use of cookies and data.
  • In Spain
  • List of Countries
  • For 7 days
  • Water Temperature
  • Satellite Maps
  • Weather Map
  • Weather Widgets
  • user-avatar
    Login

    Hourly Weather Porech

    Today, 19 June, Wednesday

    Time Temperature Precipitation Wind Pressure Humidity
    00:00 +22°C° 0 mm 1 mps 759 mmHg 81%
    01:00 +22°C° 0 mm 1 mps 759 mmHg 78%
    02:00 +22°C° 0 mm 1 mps 759 mmHg 78%
    03:00 +21°C° 0 mm 1 mps 759 mmHg 78%
    04:00 +20°C° 0 mm 2 mps 758 mmHg 78%
    05:00 +23°C° 0 mm 2 mps 758 mmHg 74%
    06:00 +25°C° 0 mm 1 mps 758 mmHg 70%
    07:00 +26°C° 0 mm 1 mps 758 mmHg 66%
    08:00 +27°C° 0 mm 2 mps 758 mmHg 61%
    09:00 +29°C° 0 mm 2 mps 758 mmHg 55%
    10:00 +30°C° 0 mm 2 mps 758 mmHg 50%
    11:00 +30°C° 0 mm 3 mps 758 mmHg 49%
    12:00 +31°C° 0 mm 3 mps 758 mmHg 48%
    13:00 +31°C° 0 mm 3 mps 758 mmHg 47%
    14:00 +31°C° 0 mm 3 mps 758 mmHg 47%
    15:00 +31°C° 0 mm 3 mps 757 mmHg 48%
    16:00 +30°C° 0 mm 3 mps 757 mmHg 48%
    17:00 +29°C° 0 mm 3 mps 757 mmHg 57%
    18:00 +27°C° 0 mm 3 mps 757 mmHg 65%
    19:00 +26°C° 0 mm 4 mps 757 mmHg 74%
    20:00 +25°C° 0 mm 4 mps 757 mmHg 78%
    21:00 +22°C° 0 mm 4 mps 757 mmHg 82%
    22:00 +21°C° 0 mm 4 mps 758 mmHg 85%
    23:00 +21°C° 0 mm 4 mps 758 mmHg 83%

    Tomorrow, 20 June, Thursday

    Time Temperature Precipitation Wind Pressure Humidity
    00:00 +21°C° 0 mm 3 mps 758 mmHg 80%
    01:00 +21°C° 0 mm 3 mps 758 mmHg 77%
    02:00 +21°C° 0 mm 3 mps 758 mmHg 76%
    03:00 +21°C° 0 mm 3 mps 758 mmHg 76%
    04:00 +20°C° 0 mm 3 mps 757 mmHg 76%
    05:00 +22°C° 0 mm 3 mps 758 mmHg 72%
    06:00 +25°C° 0 mm 3 mps 758 mmHg 68%
    07:00 +26°C° 0 mm 2 mps 758 mmHg 64%
    08:00 +28°C° 0 mm 2 mps 758 mmHg 58%
    09:00 +30°C° 0 mm 3 mps 758 mmHg 52%
    10:00 +31°C° 0 mm 3 mps 758 mmHg 47%
    11:00 +31°C° 0 mm 3 mps 758 mmHg 49%
    12:00 +31°C° 0 mm 3 mps 757 mmHg 51%
    13:00 +31°C° 0 mm 3 mps 757 mmHg 53%
    14:00 +31°C° 0 mm 3 mps 757 mmHg 54%
    15:00 +30°C° 0 mm 2 mps 757 mmHg 54%
    16:00 +30°C° 0 mm 1 mps 757 mmHg 55%
    17:00 +29°C° 0 mm 1 mps 757 mmHg 61%
    18:00 +27°C° 0 mm 2 mps 757 mmHg 68%
    19:00 +26°C° 0 mm 2 mps 757 mmHg 74%
    20:00 +25°C° 0 mm 2 mps 757 mmHg 79%
    21:00 +22°C° 0 mm 3 mps 758 mmHg 85%
    22:00 +21°C° 0 mm 3 mps 758 mmHg 90%
    23:00 +21°C° 0 mm 3 mps 758 mmHg 86%

    Day after tomorrow, 21 June, Friday

    Time Temperature Precipitation Wind Pressure Humidity
    00:00 +20°C° 0 mm 3 mps 758 mmHg 82%
    01:00 +20°C° 0 mm 3 mps 758 mmHg 78%
    02:00 +20°C° 0 mm 3 mps 759 mmHg 77%
    03:00 +20°C° 0 mm 3 mps 759 mmHg 76%
    04:00 +20°C° 0 mm 3 mps 759 mmHg 75%
    05:00 +21°C° 0 mm 3 mps 759 mmHg 70%
    06:00 +24°C° 0 mm 3 mps 759 mmHg 66%
    07:00 +26°C° 0 mm 2 mps 759 mmHg 61%
    08:00 +28°C° 0 mm 2 mps 760 mmHg 55%
    09:00 +29°C° 0 mm 2 mps 760 mmHg 49%
    10:00 +31°C° 0 mm 2 mps 760 mmHg 43%
    11:00 +31°C° 0 mm 2 mps 760 mmHg 43%
    12:00 +31°C° 0 mm 2 mps 759 mmHg 43%
    13:00 +31°C° 0 mm 2 mps 759 mmHg 43%
    14:00 +31°C° 0 mm 3 mps 759 mmHg 45%
    15:00 +30°C° 0 mm 3 mps 759 mmHg 46%
    16:00 +30°C° 0 mm 3 mps 758 mmHg 47%
    17:00 +28°C° 0 mm 3 mps 758 mmHg 55%
    18:00 +27°C° 0 mm 3 mps 758 mmHg 62%
    19:00 +26°C° 0 mm 2 mps 758 mmHg 69%
    20:00 +24°C° 0 mm 2 mps 759 mmHg 71%
    21:00 +22°C° 0 mm 3 mps 759 mmHg 73%
    22:00 +21°C° 0 mm 3 mps 759 mmHg 76%
    23:00 +21°C° 0 mm 3 mps 759 mmHg 71%

    22 June, Saturday

    Time Temperature Precipitation Wind Pressure Humidity
    00:00 +21°C° 0 mm 3 mps 759 mmHg 67%
    01:00 +21°C° 0 mm 3 mps 759 mmHg 63%
    02:00 +21°C° 0 mm 3 mps 759 mmHg 62%
    03:00 +21°C° 0 mm 3 mps 759 mmHg 61%
    04:00 +21°C° 0 mm 3 mps 758 mmHg 60%
    05:00 +22°C° 0 mm 3 mps 758 mmHg 54%
    06:00 +25°C° 0 mm 3 mps 759 mmHg 52%
    07:00 +26°C° 0 mm 3 mps 759 mmHg 51%
    08:00 +28°C° 0 mm 3 mps 759 mmHg 48%
    09:00 +30°C° 0 mm 3 mps 758 mmHg 45%
    10:00 +32°C° 0 mm 4 mps 758 mmHg 42%
    11:00 +33°C° 0 mm 4 mps 758 mmHg 42%
    12:00 +33°C° 0 mm 5 mps 758 mmHg 42%
    13:00 +33°C° 0 mm 5 mps 758 mmHg 42%
    14:00 +33°C° 0 mm 5 mps 758 mmHg 44%
    15:00 +32°C° 0 mm 4 mps 757 mmHg 45%
    16:00 +32°C° 0 mm 4 mps 757 mmHg 47%
    17:00 +29°C° 0 mm 4 mps 757 mmHg 55%
    18:00 +28°C° 0 mm 4 mps 757 mmHg 63%
    19:00 +26°C° 0 mm 3 mps 757 mmHg 71%
    20:00 +25°C° 0 mm 4 mps 758 mmHg 71%
    21:00 +23°C° 0 mm 4 mps 758 mmHg 71%
    22:00 +21°C° 0 mm 4 mps 758 mmHg 71%
    23:00 +21°C° 0 mm 3 mps 758 mmHg 70%

    23 June, Sunday

    Time Temperature Precipitation Wind Pressure Humidity
    00:00 +21°C° 0 mm 3 mps 758 mmHg 69%
    01:00 +21°C° 0 mm 2 mps 758 mmHg 68%
    02:00 +21°C° 0 mm 2 mps 759 mmHg 68%
    03:00 +21°C° 0 mm 2 mps 759 mmHg 68%
    04:00 +20°C° 0 mm 2 mps 759 mmHg 68%
    05:00 +23°C° 0 mm 2 mps 759 mmHg 65%
    06:00 +25°C° 0 mm 1 mps 759 mmHg 62%
    07:00 +27°C° 0 mm 1 mps 760 mmHg 58%
    08:00 +28°C° 0 mm 1 mps 760 mmHg 54%
    09:00 +30°C° 0 mm 1 mps 760 mmHg 50%
    10:00 +31°C° 0 mm 1 mps 760 mmHg 46%
    11:00 +31°C° 0 mm 1 mps 760 mmHg 46%
    12:00 +31°C° 0 mm 1 mps 760 mmHg 45%
    13:00 +32°C° 0 mm 2 mps 760 mmHg 45%
    14:00 +31°C° 0 mm 2 mps 760 mmHg 46%
    15:00 +31°C° 0 mm 2 mps 760 mmHg 47%
    16:00 +31°C° 0 mm 2 mps 760 mmHg 47%
    17:00 +30°C° 0 mm 1 mps 760 mmHg 55%
    18:00 +28°C° 0 mm 1 mps 760 mmHg 63%
    19:00 +27°C° 0 mm 1 mps 760 mmHg 71%
    20:00 +26°C° 0 mm 1 mps 760 mmHg 73%
    21:00 +25°C° 0 mm 1 mps 761 mmHg 75%
    22:00 +24°C° 0 mm 1 mps 761 mmHg 77%
    23:00 +23°C° 0 mm 1 mps 762 mmHg 78%

    24 June, Monday

    Time Temperature Precipitation Wind Pressure Humidity
    00:00 +23°C° 0 mm 1 mps 762 mmHg 78%
    01:00 +23°C° 0 mm 1 mps 762 mmHg 78%
    02:00 +22°C° 0 mm 1 mps 762 mmHg 78%
    03:00 +22°C° 0 mm 1 mps 762 mmHg 78%
    04:00 +22°C° 0 mm 1 mps 762 mmHg 78%
    05:00 +24°C° 0 mm 2 mps 763 mmHg 72%
    06:00 +26°C° 0 mm 2 mps 763 mmHg 66%
    07:00 +28°C° 0 mm 2 mps 763 mmHg 61%
    08:00 +29°C° 0 mm 2 mps 763 mmHg 56%
    09:00 +31°C° 0 mm 2 mps 764 mmHg 51%
    10:00 +34°C° 0 mm 2 mps 764 mmHg 46%
    11:00 +34°C° 0 mm 2 mps 764 mmHg 47%
    12:00 +32°C° 0 mm 2 mps 763 mmHg 47%
    13:00 +32°C° 0 mm 2 mps 763 mmHg 48%
    14:00 +32°C° 0 mm 2 mps 763 mmHg 49%
    15:00 +32°C° 0 mm 2 mps 763 mmHg 50%
    16:00 +32°C° 0 mm 2 mps 763 mmHg 50%
    17:00 +30°C° 0 mm 1 mps 763 mmHg 58%
    18:00 +29°C° 0 mm 1 mps 763 mmHg 66%
    19:00 +27°C° 0 mm 1 mps 764 mmHg 74%
    20:00 +26°C° 0 mm 1 mps 764 mmHg 77%
    21:00 +25°C° 0 mm 1 mps 764 mmHg 80%
    22:00 +24°C° 0 mm 1 mps 765 mmHg 84%
    23:00 +24°C° 0 mm 1 mps 765 mmHg 85%
    Show more